Terminal Aerodrome Forecast
Issued by NWS Cheyenne, WY

Home | Current Version | Previous Version | Text Only | Print | Product List | Glossary On
Versions: 1 2 3 4 5 6 7 8 9 10 11 12 13 14 15 16 17 18 19 20 21 22 23 24 25 26 27 28 29
000
FTUS45 KCYS 232300
TAFCYS
TAF
KCYS 232335Z 2400/2424 30011KT P6SM SCT080
     FM240200 29006KT P6SM SKC
     FM242000 24009G15KT P6SM SKC
     FM242300 19008KT P6SM SKC=

USA.gov is the U.S. government's official web portal to all federal, state and local government web resources and services.